Regional Weather Roundup
Issued by NWS

Home | Current Version | Previous Version | Graphics & Text | Print | Product List | Glossary On
Versions: 1 2 3 4 5 6 7 8 9 10 11 12 13 14 15 16 17 18 19 20 21 22 23 24 25 26 27 28 29 30 31 32 33 34 35 36 37 38 39 40 41 42 43 44 45 46 47 48 49 50
000
ASUS43 KBIS 261010
RWRND

NORTH DAKOTA REGIONAL WEATHER ROUNDUP
NATIONAL WEATHER SERVICE BISMARCK ND
500 AM CDT SUN APR 26 2015

NOTE: "FAIR" INDICATES FEW OR NO CLOUDS BELOW 12,000 FEET WITH NO
SIGNIFICANT WEATHER AND/OR OBSTRUCTIONS TO VISIBILITY.


NDZ001>003-009>011-017-261100-
NORTHWEST NORTH DAKOTA

CITY           SKY/WX    TMP DP  RH WIND       PRES   REMARKS
WILLISTON      CLOUDY    37  35  92 NW13      29.97R
MINOT          LGT RAIN  47  43  86 SE7       29.94R FOG
MINOT AFB      DRIZZLE   46  46 100 S8        29.93R
$$

NDZ018>021-031>035-040>046-261100-
SOUTHWEST NORTH DAKOTA

CITY           SKY/WX    TMP DP  RH WIND       PRES   REMARKS
BISMARCK       CLOUDY    46  45  96 E6        29.97R FOG
DICKINSON      CLOUDY    43  40  89 NW6       29.93R
GARRISON         N/A     45  44  97 S6        29.94R
HETTINGER ARPT CLOUDY    43  40  89 N9        29.95R
$$

NDZ004>008-012>016-024-026-027-054-261100-
NORTHEAST NORTH DAKOTA

CITY           SKY/WX    TMP DP  RH WIND       PRES   REMARKS
GRAND FORKS    CLEAR     38  29  70 SE8       30.04R
GRND FRKS AFB  PTCLDY    31  27  83 SE2       30.03R
DEVILS LAKE    CLOUDY    45  37  76 SE8       30.00S
$$

NDZ022-023-025-028>030-036>039-047>053-261100-
SOUTHEAST NORTH DAKOTA

CITY           SKY/WX    TMP DP  RH WIND       PRES   REMARKS
FARGO          PTCLDY    40  26  57 S6        30.04R
JAMESTOWN      CLOUDY    46  39  76 SE9       30.00R
$$




USA.gov is the U.S. government's official web portal to all federal, state and local government web resources and services.